Location: Plainartige
(45.6866°N, 1.7993°E)
Time: 02:28:28
(UTC+00:00)

RS-15 - Pass Details

Date: 02 July 2022
Orbit: 1881 x 2163 km, 64.8° (Epoch: 10 August)

Event Time Altitude Azimuth Distance (km) Brightness Sun altitude
Rises 22:30:44 0° 321° (NW) 5,697 11.8 -18.6°
Reaches altitude 10° 22:34:15 10° 323° (NW) 4,693 11.1 -18.8°
Maximum altitude 22:46:42 74° 50° (NE) 2,205 8.3 -19.5°
Enters shadow 22:56:22 19° 133° (SE) 3,898 9.1 -20.0°
